Year,Month,Day,Hour,Minute,Value (Times are PST for insolation in W/m^2)
2021,08,06,00,00,0.00
2021,08,06,00,01,0.00
2021,08,06,00,02,0.00
2021,08,06,00,03,0.00
2021,08,06,00,04,0.00
2021,08,06,00,05,0.00
2021,08,06,00,06,0.00
2021,08,06,00,07,0.00
2021,08,06,00,08,0.00
2021,08,06,00,09,0.00
2021,08,06,00,10,0.00
2021,08,06,00,11,0.00
2021,08,06,00,12,0.00
2021,08,06,00,13,0.00
2021,08,06,00,14,0.00
2021,08,06,00,15,0.00
2021,08,06,00,16,0.00
2021,08,06,00,17,0.00
2021,08,06,00,18,0.00
2021,08,06,00,19,0.00
2021,08,06,00,20,0.00
2021,08,06,00,21,0.00
2021,08,06,00,22,0.00
2021,08,06,00,23,0.00
2021,08,06,00,24,0.00
2021,08,06,00,25,0.00
2021,08,06,00,26,0.00
2021,08,06,00,27,0.00
2021,08,06,00,28,0.00
2021,08,06,00,29,0.00
2021,08,06,00,30,0.00
2021,08,06,00,31,0.00
2021,08,06,00,32,0.00
2021,08,06,00,33,0.00
2021,08,06,00,34,0.00
2021,08,06,00,35,0.00
2021,08,06,00,36,0.00
2021,08,06,00,37,0.00
2021,08,06,00,38,0.00
2021,08,06,00,39,0.00
2021,08,06,00,40,0.00
2021,08,06,00,41,0.00
2021,08,06,00,42,0.00
2021,08,06,00,43,0.00
2021,08,06,00,44,0.00
2021,08,06,00,45,0.00
2021,08,06,00,46,0.00
2021,08,06,00,47,0.00
2021,08,06,00,48,0.00
2021,08,06,00,49,0.00
2021,08,06,00,50,0.00
2021,08,06,00,51,0.00
2021,08,06,00,52,0.00
2021,08,06,00,53,0.00
2021,08,06,00,54,0.00
2021,08,06,00,55,0.00
2021,08,06,00,56,0.00
2021,08,06,00,57,0.00
2021,08,06,00,58,0.00
2021,08,06,00,59,0.00
2021,08,06,01,00,0.00
2021,08,06,01,01,0.00
2021,08,06,01,02,0.00
2021,08,06,01,03,0.00
2021,08,06,01,04,0.00
2021,08,06,01,05,0.00
2021,08,06,01,06,0.00
2021,08,06,01,07,0.00
2021,08,06,01,08,0.00
2021,08,06,01,09,0.00
2021,08,06,01,10,0.00
2021,08,06,01,11,0.00
2021,08,06,01,12,0.00
2021,08,06,01,13,0.00
2021,08,06,01,14,0.00
2021,08,06,01,15,0.00
2021,08,06,01,16,0.00
2021,08,06,01,17,0.00
2021,08,06,01,18,0.00
2021,08,06,01,19,0.00
2021,08,06,01,20,0.00
2021,08,06,01,21,0.00
2021,08,06,01,22,0.00
2021,08,06,01,23,0.00
2021,08,06,01,24,0.00
2021,08,06,01,25,0.00
2021,08,06,01,26,0.00
2021,08,06,01,27,0.00
2021,08,06,01,28,0.00
2021,08,06,01,29,0.00
2021,08,06,01,30,0.00
2021,08,06,01,31,0.00
2021,08,06,01,32,0.00
2021,08,06,01,33,0.00
2021,08,06,01,34,0.00
2021,08,06,01,35,0.00
2021,08,06,01,36,0.00
2021,08,06,01,37,0.00
2021,08,06,01,38,0.00
2021,08,06,01,39,0.00
2021,08,06,01,40,0.00
2021,08,06,01,41,0.00
2021,08,06,01,42,0.00
2021,08,06,01,43,0.00
2021,08,06,01,44,0.00
2021,08,06,01,45,0.00
2021,08,06,01,46,0.00
2021,08,06,01,47,0.00
2021,08,06,01,48,0.00
2021,08,06,01,49,0.00
2021,08,06,01,50,0.00
2021,08,06,01,51,0.00
2021,08,06,01,52,0.00
2021,08,06,01,53,0.00
2021,08,06,01,54,0.00
2021,08,06,01,55,0.00
2021,08,06,01,56,0.00
2021,08,06,01,57,0.00
2021,08,06,01,58,0.00
2021,08,06,01,59,0.00
2021,08,06,02,00,0.00
2021,08,06,02,01,0.00
2021,08,06,02,02,0.00
2021,08,06,02,03,0.00
2021,08,06,02,04,0.00
2021,08,06,02,05,0.00
2021,08,06,02,06,0.00
2021,08,06,02,07,0.00
2021,08,06,02,08,0.00
2021,08,06,02,09,0.00
2021,08,06,02,10,0.00
2021,08,06,02,11,0.00
2021,08,06,02,12,0.00
2021,08,06,02,13,0.00
2021,08,06,02,14,0.00
2021,08,06,02,15,0.00
2021,08,06,02,16,0.00
2021,08,06,02,17,0.00
2021,08,06,02,18,0.00
2021,08,06,02,19,0.00
2021,08,06,02,20,0.00
2021,08,06,02,21,0.00
2021,08,06,02,22,0.00
2021,08,06,02,23,0.00
2021,08,06,02,24,0.00
2021,08,06,02,25,0.00
2021,08,06,02,26,0.00
2021,08,06,02,27,0.00
2021,08,06,02,28,0.00
2021,08,06,02,29,0.00
2021,08,06,02,30,0.00
2021,08,06,02,31,0.00
2021,08,06,02,32,0.00
2021,08,06,02,33,0.00
2021,08,06,02,34,0.00
2021,08,06,02,35,0.00
2021,08,06,02,36,0.00
2021,08,06,02,37,0.00
2021,08,06,02,38,0.00
2021,08,06,02,39,0.00
2021,08,06,02,40,0.00
2021,08,06,02,41,0.00
2021,08,06,02,42,0.00
2021,08,06,02,43,0.00
2021,08,06,02,44,0.00
2021,08,06,02,45,0.00
2021,08,06,02,46,0.00
2021,08,06,02,47,0.00
2021,08,06,02,48,0.00
2021,08,06,02,49,0.00
2021,08,06,02,50,0.00
2021,08,06,02,51,0.00
2021,08,06,02,52,0.00
2021,08,06,02,53,0.00
2021,08,06,02,54,0.00
2021,08,06,02,55,0.00
2021,08,06,02,56,0.00
2021,08,06,02,57,0.00
2021,08,06,02,58,0.00
2021,08,06,02,59,0.00
2021,08,06,03,00,0.00
2021,08,06,03,01,0.00
2021,08,06,03,02,0.00
2021,08,06,03,03,0.00
2021,08,06,03,04,0.00
2021,08,06,03,05,0.00
2021,08,06,03,06,0.00
2021,08,06,03,07,0.00
2021,08,06,03,08,0.00
2021,08,06,03,09,0.00
2021,08,06,03,10,0.00
2021,08,06,03,11,0.00
2021,08,06,03,12,0.00
2021,08,06,03,13,0.00
2021,08,06,03,14,0.00
2021,08,06,03,15,0.00
2021,08,06,03,16,0.00
2021,08,06,03,17,0.00
2021,08,06,03,18,0.00
2021,08,06,03,19,0.00
2021,08,06,03,20,0.00
2021,08,06,03,21,0.00
2021,08,06,03,22,0.00
2021,08,06,03,23,0.00
2021,08,06,03,24,0.00
2021,08,06,03,25,0.00
2021,08,06,03,26,0.00
2021,08,06,03,27,0.00
2021,08,06,03,28,0.00
2021,08,06,03,29,0.00
2021,08,06,03,30,0.00
2021,08,06,03,31,0.00
2021,08,06,03,32,0.00
2021,08,06,03,33,0.00
2021,08,06,03,34,0.00
2021,08,06,03,35,0.00
2021,08,06,03,36,0.00
2021,08,06,03,37,0.00
2021,08,06,03,38,0.00
2021,08,06,03,39,0.00
2021,08,06,03,40,0.00
2021,08,06,03,41,0.00
2021,08,06,03,42,0.00
2021,08,06,03,43,0.00
2021,08,06,03,44,0.00
2021,08,06,03,45,0.00
2021,08,06,03,46,0.00
2021,08,06,03,47,0.00
2021,08,06,03,48,0.00
2021,08,06,03,49,0.00
2021,08,06,03,50,0.00
2021,08,06,03,51,0.00
2021,08,06,03,52,0.00
2021,08,06,03,53,0.00
2021,08,06,03,54,0.00
2021,08,06,03,55,0.00
2021,08,06,03,56,0.00
2021,08,06,03,57,0.00
2021,08,06,03,58,0.00
2021,08,06,03,59,0.00
2021,08,06,04,00,0.00
2021,08,06,04,01,0.00
2021,08,06,04,02,0.00
2021,08,06,04,03,0.00
2021,08,06,04,04,0.00
2021,08,06,04,05,0.00
2021,08,06,04,06,0.00
2021,08,06,04,07,0.00
2021,08,06,04,08,0.00
2021,08,06,04,09,0.00
2021,08,06,04,10,0.00
2021,08,06,04,11,0.00
2021,08,06,04,12,0.00
2021,08,06,04,13,0.00
2021,08,06,04,14,0.00
2021,08,06,04,15,0.00
2021,08,06,04,16,0.00
2021,08,06,04,17,0.00
2021,08,06,04,18,0.00
2021,08,06,04,19,0.00
2021,08,06,04,20,0.00
2021,08,06,04,21,0.00
2021,08,06,04,22,0.00
2021,08,06,04,23,0.00
2021,08,06,04,24,0.00
2021,08,06,04,25,0.00
2021,08,06,04,26,0.00
2021,08,06,04,27,0.00
2021,08,06,04,28,0.00
2021,08,06,04,29,0.00
2021,08,06,04,30,0.00
2021,08,06,04,31,0.00
2021,08,06,04,32,0.00
2021,08,06,04,33,0.00
2021,08,06,04,34,0.00
2021,08,06,04,35,0.00
2021,08,06,04,36,0.00
2021,08,06,04,37,0.00
2021,08,06,04,38,0.00
2021,08,06,04,39,0.00
2021,08,06,04,40,0.00
2021,08,06,04,41,0.00
2021,08,06,04,42,0.00
2021,08,06,04,43,0.00
2021,08,06,04,44,0.00
2021,08,06,04,45,0.00
2021,08,06,04,46,0.00
2021,08,06,04,47,0.00
2021,08,06,04,48,0.00
2021,08,06,04,49,0.00
2021,08,06,04,50,0.00
2021,08,06,04,51,0.00
2021,08,06,04,52,0.00
2021,08,06,04,53,0.00
2021,08,06,04,54,0.00
2021,08,06,04,55,0.00
2021,08,06,04,56,0.00
2021,08,06,04,57,0.00
2021,08,06,04,58,0.00
2021,08,06,04,59,0.00
2021,08,06,05,00,0.00
2021,08,06,05,01,0.00
2021,08,06,05,02,0.00
2021,08,06,05,03,0.00
2021,08,06,05,04,0.00
2021,08,06,05,05,0.00
2021,08,06,05,06,0.00
2021,08,06,05,07,0.00
2021,08,06,05,08,0.00
2021,08,06,05,09,0.00
2021,08,06,05,10,0.00
2021,08,06,05,11,0.00
2021,08,06,05,12,0.00
2021,08,06,05,13,0.00
2021,08,06,05,14,0.00
2021,08,06,05,15,0.00
2021,08,06,05,16,0.00
2021,08,06,05,17,0.00
2021,08,06,05,18,0.00
2021,08,06,05,19,0.00
2021,08,06,05,20,0.00
2021,08,06,05,21,0.00
2021,08,06,05,22,0.00
2021,08,06,05,23,0.00
2021,08,06,05,24,0.00
2021,08,06,05,25,0.00
2021,08,06,05,26,0.00
2021,08,06,05,27,0.00
2021,08,06,05,28,0.00
2021,08,06,05,29,0.00
2021,08,06,05,30,0.00
2021,08,06,05,31,0.00
2021,08,06,05,32,0.00
2021,08,06,05,33,0.00
2021,08,06,05,34,0.00
2021,08,06,05,35,0.00
2021,08,06,05,36,0.00
2021,08,06,05,37,0.00
2021,08,06,05,38,0.00
2021,08,06,05,39,0.00
2021,08,06,05,40,0.00
2021,08,06,05,41,0.00
2021,08,06,05,42,0.00
2021,08,06,05,43,0.00
2021,08,06,05,44,0.00
2021,08,06,05,45,0.00
2021,08,06,05,46,0.00
2021,08,06,05,47,0.00
2021,08,06,05,48,0.00
2021,08,06,05,49,0.00
2021,08,06,05,50,0.00
2021,08,06,05,51,0.00
2021,08,06,05,52,0.00
2021,08,06,05,53,0.00
2021,08,06,05,54,0.00
2021,08,06,05,55,0.00
2021,08,06,05,56,0.00
2021,08,06,05,57,0.00
2021,08,06,05,58,3.70
2021,08,06,05,59,5.00
2021,08,06,06,00,5.00
2021,08,06,06,01,5.00
2021,08,06,06,02,7.00
2021,08,06,06,03,7.00
2021,08,06,06,04,7.30
2021,08,06,06,05,9.00
2021,08,06,06,06,9.60
2021,08,06,06,07,11.00
2021,08,06,06,08,11.40
2021,08,06,06,09,12.00
2021,08,06,06,10,13.10
2021,08,06,06,11,14.00
2021,08,06,06,12,14.00
2021,08,06,06,13,14.00
2021,08,06,06,14,14.00
2021,08,06,06,15,14.00
2021,08,06,06,16,14.00
2021,08,06,06,17,16.00
2021,08,06,06,18,16.00
2021,08,06,06,19,16.00
2021,08,06,06,20,16.00
2021,08,06,06,21,16.00
2021,08,06,06,22,16.00
2021,08,06,06,23,16.00
2021,08,06,06,24,16.00
2021,08,06,06,25,16.00
2021,08,06,06,26,16.00
2021,08,06,06,27,16.00
2021,08,06,06,28,14.60
2021,08,06,06,29,14.00
2021,08,06,06,30,14.00
2021,08,06,06,31,14.00
2021,08,06,06,32,14.00
2021,08,06,06,33,14.00
2021,08,06,06,34,14.00
2021,08,06,06,35,14.00
2021,08,06,06,36,14.00
2021,08,06,06,37,14.00
2021,08,06,06,38,14.00
2021,08,06,06,39,14.00
2021,08,06,06,40,14.00
2021,08,06,06,41,14.00
2021,08,06,06,42,14.00
2021,08,06,06,43,15.40
2021,08,06,06,44,16.00
2021,08,06,06,45,16.00
2021,08,06,06,46,16.00
2021,08,06,06,47,16.00
2021,08,06,06,48,16.00
2021,08,06,06,49,16.00
2021,08,06,06,50,16.50
2021,08,06,06,51,18.00
2021,08,06,06,52,18.00
2021,08,06,06,53,18.00
2021,08,06,06,54,18.00
2021,08,06,06,55,18.50
2021,08,06,06,56,19.00
2021,08,06,06,57,19.00
2021,08,06,06,58,20.50
2021,08,06,06,59,21.00
2021,08,06,07,00,21.00
2021,08,06,07,01,22.80
2021,08,06,07,02,23.00
2021,08,06,07,03,23.00
2021,08,06,07,04,23.30
2021,08,06,07,05,25.00
2021,08,06,07,06,25.00
2021,08,06,07,07,25.00
2021,08,06,07,08,25.00
2021,08,06,07,09,25.00
2021,08,06,07,10,25.00
2021,08,06,07,11,25.00
2021,08,06,07,12,25.00
2021,08,06,07,13,25.00
2021,08,06,07,14,25.00
2021,08,06,07,15,25.00
2021,08,06,07,16,25.00
2021,08,06,07,17,26.10
2021,08,06,07,18,28.20
2021,08,06,07,19,30.00
2021,08,06,07,20,30.00
2021,08,06,07,21,30.00
2021,08,06,07,22,30.00
2021,08,06,07,23,30.00
2021,08,06,07,24,30.00
2021,08,06,07,25,30.00
2021,08,06,07,26,31.20
2021,08,06,07,27,32.70
2021,08,06,07,28,34.50
2021,08,06,07,29,35.00
2021,08,06,07,30,35.00
2021,08,06,07,31,35.00
2021,08,06,07,32,36.90
2021,08,06,07,33,37.00
2021,08,06,07,34,37.00
2021,08,06,07,35,37.00
2021,08,06,07,36,36.40
2021,08,06,07,37,34.30
2021,08,06,07,38,33.00
2021,08,06,07,39,33.00
2021,08,06,07,40,33.00
2021,08,06,07,41,33.00
2021,08,06,07,42,33.00
2021,08,06,07,43,33.00
2021,08,06,07,44,34.60
2021,08,06,07,45,35.00
2021,08,06,07,46,35.00
2021,08,06,07,47,35.00
2021,08,06,07,48,35.00
2021,08,06,07,49,35.40
2021,08,06,07,50,37.50
2021,08,06,07,51,39.30
2021,08,06,07,52,40.70
2021,08,06,07,53,42.80
2021,08,06,07,54,45.00
2021,08,06,07,55,46.50
2021,08,06,07,56,49.40
2021,08,06,07,57,49.70
2021,08,06,07,58,46.80
2021,08,06,07,59,41.20
2021,08,06,08,00,37.50
2021,08,06,08,01,37.00
2021,08,06,08,02,37.10
2021,08,06,08,03,39.40
2021,08,06,08,04,42.80
2021,08,06,08,05,46.60
2021,08,06,08,06,49.50
2021,08,06,08,07,51.70
2021,08,06,08,08,54.20
2021,08,06,08,09,57.80
2021,08,06,08,10,63.80
2021,08,06,08,11,70.00
2021,08,06,08,12,73.30
2021,08,06,08,13,76.20
2021,08,06,08,14,78.60
2021,08,06,08,15,77.30
2021,08,06,08,16,77.00
2021,08,06,08,17,77.10
2021,08,06,08,18,79.00
2021,08,06,08,19,79.40
2021,08,06,08,20,81.00
2021,08,06,08,21,80.50
2021,08,06,08,22,79.70
2021,08,06,08,23,81.80
2021,08,06,08,24,83.50
2021,08,06,08,25,85.10
2021,08,06,08,26,87.20
2021,08,06,08,27,90.00
2021,08,06,08,28,96.10
2021,08,06,08,29,103.70
2021,08,06,08,30,112.60
2021,08,06,08,31,115.80
2021,08,06,08,32,109.20
2021,08,06,08,33,107.60
2021,08,06,08,34,114.60
2021,08,06,08,35,119.20
2021,08,06,08,36,123.60
2021,08,06,08,37,120.20
2021,08,06,08,38,108.50
2021,08,06,08,39,106.00
2021,08,06,08,40,109.20
2021,08,06,08,41,121.50
2021,08,06,08,42,127.30
2021,08,06,08,43,134.20
2021,08,06,08,44,142.40
2021,08,06,08,45,160.10
2021,08,06,08,46,163.00
2021,08,06,08,47,407.20
2021,08,06,08,48,484.60
2021,08,06,08,49,497.00
2021,08,06,08,50,476.00
2021,08,06,08,51,435.20
2021,08,06,08,52,497.00
2021,08,06,08,53,468.00
2021,08,06,08,54,468.00
2021,08,06,08,55,510.50
2021,08,06,08,56,527.20
2021,08,06,08,57,537.90
2021,08,06,08,58,545.10
2021,08,06,08,59,553.50
2021,08,06,09,00,566.00
2021,08,06,09,01,585.50
2021,08,06,09,02,569.70
2021,08,06,09,03,594.10
2021,08,06,09,04,615.10
2021,08,06,09,05,647.10
2021,08,06,09,06,672.90
2021,08,06,09,07,688.80
2021,08,06,09,08,682.00
2021,08,06,09,09,657.10
2021,08,06,09,10,579.50
2021,08,06,09,11,531.40
2021,08,06,09,12,531.60
2021,08,06,09,13,534.00
2021,08,06,09,14,534.00
2021,08,06,09,15,433.70
2021,08,06,09,16,366.00
2021,08,06,09,17,343.50
2021,08,06,09,18,338.70
2021,08,06,09,19,337.40
2021,08,06,09,20,345.00
2021,08,06,09,21,349.60
2021,08,06,09,22,363.40
2021,08,06,09,23,367.20
2021,08,06,09,24,371.30
2021,08,06,09,25,362.70
2021,08,06,09,26,349.90
2021,08,06,09,27,344.50
2021,08,06,09,28,344.40
2021,08,06,09,29,339.60
2021,08,06,09,30,343.90
2021,08,06,09,31,321.90
2021,08,06,09,32,316.10
2021,08,06,09,33,348.20
2021,08,06,09,34,388.00
2021,08,06,09,35,388.00
2021,08,06,09,36,417.20
2021,08,06,09,37,485.10
2021,08,06,09,38,522.40
2021,08,06,09,39,527.20
2021,08,06,09,40,483.00
2021,08,06,09,41,483.00
2021,08,06,09,42,503.10
2021,08,06,09,43,478.90
2021,08,06,09,44,539.10
2021,08,06,09,45,532.20
2021,08,06,09,46,561.20
2021,08,06,09,47,468.50
2021,08,06,09,48,460.00
2021,08,06,09,49,491.70
2021,08,06,09,50,479.30
2021,08,06,09,51,510.60
2021,08,06,09,52,476.30
2021,08,06,09,53,442.20
2021,08,06,09,54,439.60
2021,08,06,09,55,463.30
2021,08,06,09,56,475.20
2021,08,06,09,57,473.20
2021,08,06,09,58,467.10
2021,08,06,09,59,470.90
2021,08,06,10,00,526.30
2021,08,06,10,01,536.00
2021,08,06,10,02,418.50
2021,08,06,10,03,454.80
2021,08,06,10,04,450.40
2021,08,06,10,05,413.20
2021,08,06,10,06,455.90
2021,08,06,10,07,510.00
2021,08,06,10,08,441.60
2021,08,06,10,09,343.20
2021,08,06,10,10,346.40
2021,08,06,10,11,351.20
2021,08,06,10,12,340.50
2021,08,06,10,13,307.40
2021,08,06,10,14,297.00
2021,08,06,10,15,291.10
2021,08,06,10,16,356.50
2021,08,06,10,17,350.70
2021,08,06,10,18,362.20
2021,08,06,10,19,336.80
2021,08,06,10,20,418.40
2021,08,06,10,21,483.00
2021,08,06,10,22,561.10
2021,08,06,10,23,727.70
2021,08,06,10,24,772.00
2021,08,06,10,25,678.80
2021,08,06,10,26,599.00
2021,08,06,10,27,599.00
2021,08,06,10,28,628.80
2021,08,06,10,29,642.00
2021,08,06,10,30,783.30
2021,08,06,10,31,784.20
2021,08,06,10,32,782.00
2021,08,06,10,33,782.00
2021,08,06,10,34,781.20
2021,08,06,10,35,766.40
2021,08,06,10,36,739.40
2021,08,06,10,37,761.00
2021,08,06,10,38,761.00
2021,08,06,10,39,761.00
2021,08,06,10,40,761.00
2021,08,06,10,41,761.00
2021,08,06,10,42,761.00
2021,08,06,10,43,761.00
2021,08,06,10,44,770.70
2021,08,06,10,45,778.10
2021,08,06,10,46,864.60
2021,08,06,10,47,872.00
2021,08,06,10,48,872.00
2021,08,06,10,49,872.00
2021,08,06,10,50,872.00
2021,08,06,10,51,872.00
2021,08,06,10,52,873.00
2021,08,06,10,53,875.00
2021,08,06,10,54,875.00
2021,08,06,10,55,875.00
2021,08,06,10,56,875.00
2021,08,06,10,57,875.00
2021,08,06,10,58,875.00
2021,08,06,10,59,776.60
2021,08,06,11,00,831.50
2021,08,06,11,01,846.00
2021,08,06,11,02,844.50
2021,08,06,11,03,806.80
2021,08,06,11,04,804.50
2021,08,06,11,05,803.20
2021,08,06,11,06,806.40
2021,08,06,11,07,806.40
2021,08,06,11,08,809.00
2021,08,06,11,09,809.00
2021,08,06,11,10,805.60
2021,08,06,11,11,798.80
2021,08,06,11,12,790.80
2021,08,06,11,13,788.00
2021,08,06,11,14,788.00
2021,08,06,11,15,786.20
2021,08,06,11,16,784.20
2021,08,06,11,17,785.80
2021,08,06,11,18,782.00
2021,08,06,11,19,783.00
2021,08,06,11,20,787.50
2021,08,06,11,21,786.00
2021,08,06,11,22,783.80
2021,08,06,11,23,756.30
2021,08,06,11,24,756.00
2021,08,06,11,25,788.00
2021,08,06,11,26,788.60
2021,08,06,11,27,789.00
2021,08,06,11,28,789.00
2021,08,06,11,29,792.20
2021,08,06,11,30,791.20
2021,08,06,11,31,792.80
2021,08,06,11,32,793.10
2021,08,06,11,33,795.30
2021,08,06,11,34,797.70
2021,08,06,11,35,796.50
2021,08,06,11,36,798.00
2021,08,06,11,37,798.00
2021,08,06,11,38,798.80
2021,08,06,11,39,801.40
2021,08,06,11,40,803.00
2021,08,06,11,41,803.00
2021,08,06,11,42,804.30
2021,08,06,11,43,805.00
2021,08,06,11,44,806.50
2021,08,06,11,45,809.50
2021,08,06,11,46,809.10
2021,08,06,11,47,812.00
2021,08,06,11,48,815.50
2021,08,06,11,49,812.30
2021,08,06,11,50,814.50
2021,08,06,11,51,816.90
2021,08,06,11,52,819.00
2021,08,06,11,53,820.50
2021,08,06,11,54,823.50
2021,08,06,11,55,822.40
2021,08,06,11,56,825.20
2021,08,06,11,57,829.30
2021,08,06,11,58,835.10
2021,08,06,11,59,842.60
2021,08,06,12,00,846.50
2021,08,06,12,01,848.80
2021,08,06,12,02,847.10
2021,08,06,12,03,846.90
2021,08,06,12,04,845.00
2021,08,06,12,05,840.50
2021,08,06,12,06,842.60
2021,08,06,12,07,845.80
2021,08,06,12,08,853.20
2021,08,06,12,09,863.20
2021,08,06,12,10,872.40
2021,08,06,12,11,883.60
2021,08,06,12,12,898.50
2021,08,06,12,13,912.80
2021,08,06,12,14,929.70
2021,08,06,12,15,933.00
2021,08,06,12,16,963.10
2021,08,06,12,17,974.60
2021,08,06,12,18,994.70
2021,08,06,12,19,979.90
2021,08,06,12,20,990.60
2021,08,06,12,21,970.50
2021,08,06,12,22,953.70
2021,08,06,12,23,941.00
2021,08,06,12,24,926.50
2021,08,06,12,25,912.50
2021,08,06,12,26,905.80
2021,08,06,12,27,909.60
2021,08,06,12,28,930.00
2021,08,06,12,29,951.60
2021,08,06,12,30,978.80
2021,08,06,12,31,1011.50
2021,08,06,12,32,1007.20
2021,08,06,12,33,837.00
2021,08,06,12,34,837.00
2021,08,06,12,35,834.00
2021,08,06,12,36,828.00
2021,08,06,12,37,832.30
2021,08,06,12,38,824.00
2021,08,06,12,39,735.80
2021,08,06,12,40,648.60
2021,08,06,12,41,636.50
2021,08,06,12,42,624.20
2021,08,06,12,43,628.00
2021,08,06,12,44,628.00
2021,08,06,12,45,978.30
2021,08,06,12,46,1029.10
2021,08,06,12,47,1032.80
2021,08,06,12,48,1061.90
2021,08,06,12,49,1098.70
2021,08,06,12,50,1134.00
2021,08,06,12,51,1134.00
2021,08,06,12,52,1134.00
2021,08,06,12,53,883.10
2021,08,06,12,54,534.00
2021,08,06,12,55,527.00
2021,08,06,12,56,527.00
2021,08,06,12,57,469.50
2021,08,06,12,58,418.50
2021,08,06,12,59,399.80
2021,08,06,13,00,404.60
2021,08,06,13,01,403.20
2021,08,06,13,02,392.40
2021,08,06,13,03,406.30
2021,08,06,13,04,434.90
2021,08,06,13,05,454.80
2021,08,06,13,06,470.40
2021,08,06,13,07,471.20
2021,08,06,13,08,469.60
2021,08,06,13,09,466.50
2021,08,06,13,10,485.40
2021,08,06,13,11,521.20
2021,08,06,13,12,547.20
2021,08,06,13,13,552.00
2021,08,06,13,14,682.80
2021,08,06,13,15,765.20
2021,08,06,13,16,687.40
2021,08,06,13,17,641.10
2021,08,06,13,18,677.00
2021,08,06,13,19,677.00
2021,08,06,13,20,791.00
2021,08,06,13,21,1171.00
2021,08,06,13,22,1171.00
2021,08,06,13,23,1171.00
2021,08,06,13,24,1171.00
2021,08,06,13,25,1171.00
2021,08,06,13,26,1171.00
2021,08,06,13,27,1171.00
2021,08,06,13,28,1171.00
2021,08,06,13,29,1171.00
2021,08,06,13,30,1171.00
2021,08,06,13,31,1143.30
2021,08,06,13,32,1141.00
2021,08,06,13,33,1141.00
2021,08,06,13,34,1106.90
2021,08,06,13,35,928.00
2021,08,06,13,36,928.00
2021,08,06,13,37,928.00
2021,08,06,13,38,928.00
2021,08,06,13,39,763.20
2021,08,06,13,40,593.60
2021,08,06,13,41,601.60
2021,08,06,13,42,529.90
2021,08,06,13,43,496.00
2021,08,06,13,44,633.30
2021,08,06,13,45,666.00
2021,08,06,13,46,666.00
2021,08,06,13,47,684.60
2021,08,06,13,48,1150.00
2021,08,06,13,49,1150.00
2021,08,06,13,50,1150.00
2021,08,06,13,51,1180.80
2021,08,06,13,52,1250.00
2021,08,06,13,53,985.00
2021,08,06,13,54,561.00
2021,08,06,13,55,474.80
2021,08,06,13,56,453.80
2021,08,06,13,57,498.80
2021,08,06,13,58,498.20
2021,08,06,13,59,482.20
2021,08,06,14,00,450.10
2021,08,06,14,01,470.80
2021,08,06,14,02,440.00
2021,08,06,14,03,437.70
2021,08,06,14,04,488.70
2021,08,06,14,05,487.00
2021,08,06,14,06,487.00
2021,08,06,14,07,465.50
2021,08,06,14,08,435.80
2021,08,06,14,09,444.60
2021,08,06,14,10,444.60
2021,08,06,14,11,492.20
2021,08,06,14,12,499.40
2021,08,06,14,13,489.00
2021,08,06,14,14,489.00
2021,08,06,14,15,483.90
2021,08,06,14,16,480.20
2021,08,06,14,17,577.00
2021,08,06,14,18,577.00
2021,08,06,14,19,575.20
2021,08,06,14,20,566.00
2021,08,06,14,21,566.00
2021,08,06,14,22,579.80
2021,08,06,14,23,606.00
2021,08,06,14,24,583.40
2021,08,06,14,25,557.00
2021,08,06,14,26,573.20
2021,08,06,14,27,558.50
2021,08,06,14,28,506.80
2021,08,06,14,29,492.00
2021,08,06,14,30,465.80
2021,08,06,14,31,493.20
2021,08,06,14,32,505.80
2021,08,06,14,33,557.70
2021,08,06,14,34,550.40
2021,08,06,14,35,550.30
2021,08,06,14,36,493.80
2021,08,06,14,37,465.80
2021,08,06,14,38,466.60
2021,08,06,14,39,478.70
2021,08,06,14,40,523.40
2021,08,06,14,41,540.00
2021,08,06,14,42,670.80
2021,08,06,14,43,740.00
2021,08,06,14,44,876.80
2021,08,06,14,45,878.00
2021,08,06,14,46,816.60
2021,08,06,14,47,812.00
2021,08,06,14,48,820.50
2021,08,06,14,49,918.00
2021,08,06,14,50,918.00
2021,08,06,14,51,795.40
2021,08,06,14,52,448.20
2021,08,06,14,53,392.70
2021,08,06,14,54,405.00
2021,08,06,14,55,404.80
2021,08,06,14,56,395.00
2021,08,06,14,57,381.50
2021,08,06,14,58,363.80
2021,08,06,14,59,359.00
2021,08,06,15,00,364.90
2021,08,06,15,01,377.10
2021,08,06,15,02,399.80
2021,08,06,15,03,421.40
2021,08,06,15,04,432.00
2021,08,06,15,05,396.20
2021,08,06,15,06,385.00
2021,08,06,15,07,385.70
2021,08,06,15,08,392.10
2021,08,06,15,09,409.10
2021,08,06,15,10,415.20
2021,08,06,15,11,399.30
2021,08,06,15,12,380.20
2021,08,06,15,13,366.80
2021,08,06,15,14,364.00
2021,08,06,15,15,366.50
2021,08,06,15,16,370.70
2021,08,06,15,17,401.50
2021,08,06,15,18,411.80
2021,08,06,15,19,397.00
2021,08,06,15,20,358.00
2021,08,06,15,21,334.90
2021,08,06,15,22,325.30
2021,08,06,15,23,321.20
2021,08,06,15,24,319.00
2021,08,06,15,25,319.10
2021,08,06,15,26,318.80
2021,08,06,15,27,316.70
2021,08,06,15,28,318.90
2021,08,06,15,29,322.40
2021,08,06,15,30,341.60
2021,08,06,15,31,349.60
2021,08,06,15,32,359.80
2021,08,06,15,33,363.60
2021,08,06,15,34,343.80
2021,08,06,15,35,338.40
2021,08,06,15,36,335.50
2021,08,06,15,37,332.60
2021,08,06,15,38,330.80
2021,08,06,15,39,343.00
2021,08,06,15,40,353.90
2021,08,06,15,41,392.00
2021,08,06,15,42,465.10
2021,08,06,15,43,490.00
2021,08,06,15,44,490.00
2021,08,06,15,45,366.80
2021,08,06,15,46,422.90
2021,08,06,15,47,418.80
2021,08,06,15,48,452.00
2021,08,06,15,49,520.60
2021,08,06,15,50,905.40
2021,08,06,15,51,930.00
2021,08,06,15,52,795.30
2021,08,06,15,53,541.00
2021,08,06,15,54,541.00
2021,08,06,15,55,541.00
2021,08,06,15,56,698.20
2021,08,06,15,57,803.00
2021,08,06,15,58,803.00
2021,08,06,15,59,877.60
2021,08,06,16,00,900.00
2021,08,06,16,01,660.80
2021,08,06,16,02,637.30
2021,08,06,16,03,564.10
2021,08,06,16,04,511.10
2021,08,06,16,05,461.90
2021,08,06,16,06,415.80
2021,08,06,16,07,415.50
2021,08,06,16,08,360.00
2021,08,06,16,09,300.20
2021,08,06,16,10,280.30
2021,08,06,16,11,285.40
2021,08,06,16,12,294.80
2021,08,06,16,13,297.00
2021,08,06,16,14,291.60
2021,08,06,16,15,288.30
2021,08,06,16,16,304.60
2021,08,06,16,17,312.80
2021,08,06,16,18,309.50
2021,08,06,16,19,315.30
2021,08,06,16,20,322.10
2021,08,06,16,21,318.10
2021,08,06,16,22,330.30
2021,08,06,16,23,333.80
2021,08,06,16,24,340.60
2021,08,06,16,25,348.20
2021,08,06,16,26,349.60
2021,08,06,16,27,342.30
2021,08,06,16,28,347.20
2021,08,06,16,29,334.60
2021,08,06,16,30,333.40
2021,08,06,16,31,345.00
2021,08,06,16,32,352.70
2021,08,06,16,33,348.70
2021,08,06,16,34,312.10
2021,08,06,16,35,329.30
2021,08,06,16,36,358.90
2021,08,06,16,37,338.00
2021,08,06,16,38,450.10
2021,08,06,16,39,603.00
2021,08,06,16,40,508.90
2021,08,06,16,41,422.00
2021,08,06,16,42,507.00
2021,08,06,16,43,543.20
2021,08,06,16,44,559.40
2021,08,06,16,45,564.00
2021,08,06,16,46,340.60
2021,08,06,16,47,278.20
2021,08,06,16,48,256.00
2021,08,06,16,49,242.80
2021,08,06,16,50,236.00
2021,08,06,16,51,240.60
2021,08,06,16,52,253.20
2021,08,06,16,53,257.00
2021,08,06,16,54,256.10
2021,08,06,16,55,253.90
2021,08,06,16,56,250.00
2021,08,06,16,57,245.30
2021,08,06,16,58,246.90
2021,08,06,16,59,248.00
2021,08,06,17,00,244.50
2021,08,06,17,01,241.30
2021,08,06,17,02,236.10
2021,08,06,17,03,234.20
2021,08,06,17,04,237.00
2021,08,06,17,05,236.30
2021,08,06,17,06,232.80
2021,08,06,17,07,230.00
2021,08,06,17,08,227.90
2021,08,06,17,09,220.80
2021,08,06,17,10,209.50
2021,08,06,17,11,196.80